^^
Datos históricos de la estación: Murcia-Puente Tocinos
 
Diario Informe para Noviembre 18, 2017 Unidades:  Métrico    Inglés   Ambas
« Anterior Día
Siguiente Día »
Diario Semanal Mensual Anual Configurable
  Actual: Máximo: Mínimo: Media:
Temperatura: 17.2 °C 17.2 °C 7.7 °C 10.4 °C
Punto de rocio: 5.2 °C 9.4 °C 3.3 °C 5.6 °C
Humedad: 45% 85% 45% 74%
Velocidad viento: 3.2km/h 10.0km/h 3.2km/h 6.3km/h
Racha viento: 5.6km/h 13.0km/h - -
VientoSouth - - Sur
Presión: 1018.2 hPa 1019.5 hPa 1018.2 hPa -
Precipitación: 0.0 mm      
Historical Graphs
 
 
Tabla de datos para Noviembre 18, 2017
Hora Temperatura Punto de rocio Presión Viento Velocidad viento Racha viento Humedad Intensidad lluvia(por hora) Nubes
00:00 12.0 °C 9.4 °C 1018.5 hPa SE 5.0 km/h 7.4 km/h 84% 0.0 mm CLR
00:06 11.9 °C 9.3 °C 1018.5 hPa SSW 5.0 km/h 7.6 km/h 84% 0.0 mm CLR
00:11 11.8 °C 9.2 °C 1018.5 hPa SSW 5.0 km/h 7.4 km/h 84% 0.0 mm CLR
00:16 11.7 °C 9.3 °C 1018.5 hPa SSW 5.0 km/h 7.4 km/h 85% 0.0 mm CLR
00:21 11.7 °C 9.3 °C 1018.5 hPa South 5.0 km/h 7.4 km/h 85% 0.0 mm CLR
00:26 11.7 °C 9.3 °C 1018.8 hPa SSW 5.0 km/h 5.8 km/h 85% 0.0 mm CLR
00:31 11.7 °C 9.1 °C 1018.8 hPa SW 4.7 km/h 5.6 km/h 84% 0.0 mm CLR
00:36 11.7 °C 9.1 °C 1018.8 hPa SSW 4.7 km/h 5.6 km/h 84% 0.0 mm CLR
00:41 11.7 °C 9.1 °C 1018.8 hPa South 3.9 km/h 6.4 km/h 84% 0.0 mm CLR
00:46 11.6 °C 9.0 °C 1018.8 hPa South 3.9 km/h 7.4 km/h 84% 0.0 mm CLR
00:51 11.5 °C 9.1 °C 1018.8 hPa South 5.0 km/h 7.4 km/h 85% 0.0 mm CLR
00:56 11.4 °C 8.9 °C 1018.8 hPa SW 5.0 km/h 9.3 km/h 85% 0.0 mm CLR
01:01 11.4 °C 8.8 °C 1018.8 hPa SSW 5.8 km/h 7.6 km/h 84% 0.0 mm CLR
01:06 11.4 °C 8.8 °C 1018.8 hPa SSW 5.8 km/h 9.3 km/h 84% 0.0 mm CLR
01:11 11.4 °C 8.8 °C 1018.5 hPa SSE 5.8 km/h 7.4 km/h 84% 0.0 mm CLR
01:16 11.3 °C 8.7 °C 1018.5 hPa SSE 5.8 km/h 8.4 km/h 84% 0.0 mm CLR
01:21 11.2 °C 8.4 °C 1018.5 hPa South 5.8 km/h 9.3 km/h 83% 0.0 mm CLR
01:26 11.1 °C 8.3 °C 1018.5 hPa SSE 5.8 km/h 9.3 km/h 83% 0.0 mm CLR
01:31 10.9 °C 7.9 °C 1018.5 hPa SSE 6.4 km/h 11.1 km/h 82% 0.0 mm CLR
01:36 10.9 °C 7.9 °C 1018.5 hPa South 6.4 km/h 11.1 km/h 82% 0.0 mm CLR
01:41 10.9 °C 7.8 °C 1018.5 hPa South 7.6 km/h 11.1 km/h 81% 0.0 mm CLR
01:46 10.9 °C 7.8 °C 1018.5 hPa South 7.6 km/h 11.1 km/h 81% 0.0 mm CLR
01:51 10.8 °C 7.5 °C 1018.5 hPa SSW 8.4 km/h 13.0 km/h 80% 0.0 mm CLR
01:56 10.8 °C 7.3 °C 1018.5 hPa South 8.4 km/h 11.1 km/h 79% 0.0 mm CLR
02:01 10.8 °C 7.3 °C 1018.5 hPa SSW 8.7 km/h 11.1 km/h 79% 0.0 mm CLR
02:06 10.9 °C 7.4 °C 1018.5 hPa South 8.7 km/h 9.3 km/h 79% 0.0 mm CLR
02:11 10.9 °C 7.4 °C 1018.5 hPa South 6.9 km/h 9.3 km/h 79% 0.0 mm CLR
02:16 11.0 °C 7.3 °C 1018.5 hPa SSW 6.9 km/h 7.6 km/h 78% 0.0 mm CLR
02:21 11.2 °C 7.5 °C 1018.5 hPa SSW 6.4 km/h 11.1 km/h 78% 0.0 mm CLR
02:26 11.3 °C 7.4 °C 1018.5 hPa SW 6.4 km/h 9.3 km/h 77% 0.0 mm CLR
02:31 11.4 °C 7.5 °C 1018.5 hPa SW 6.9 km/h 7.4 km/h 77% 0.0 mm CLR
02:36 11.3 °C 7.2 °C 1018.5 hPa SW 6.9 km/h 7.4 km/h 76% 0.0 mm CLR
02:41 11.3 °C 7.0 °C 1018.5 hPa SW 6.4 km/h 9.3 km/h 75% 0.0 mm CLR
02:46 11.3 °C 7.2 °C 1018.5 hPa SE 6.4 km/h 6.4 km/h 76% 0.0 mm CLR
02:51 10.9 °C 7.0 °C 1018.5 hPa ESE 4.7 km/h 7.4 km/h 77% 0.0 mm CLR
02:56 10.6 °C 6.9 °C 1018.5 hPa SSE 4.7 km/h 7.4 km/h 78% 0.0 mm CLR
03:01 10.1 °C 6.8 °C 1018.5 hPa SE 4.7 km/h 9.3 km/h 80% 0.0 mm CLR
03:06 9.6 °C 6.7 °C 1018.5 hPa SSE 4.7 km/h 9.3 km/h 82% 0.0 mm CLR
03:11 9.3 °C 6.6 °C 1018.5 hPa SSE 6.4 km/h 11.1 km/h 83% 0.0 mm CLR
03:16 9.1 °C 6.4 °C 1018.5 hPa SSE 6.4 km/h 9.3 km/h 83% 0.0 mm CLR
03:17 9.1 °C 6.4 °C 1018.5 hPa SSE 6.4 km/h 9.3 km/h 83% 0.0 mm CLR
03:22 9.0 °C 6.4 °C 1018.5 hPa SSE 6.9 km/h 7.4 km/h 84% 0.0 mm CLR
03:27 8.9 °C 6.3 °C 1018.5 hPa SSE 6.9 km/h 7.4 km/h 84% 0.0 mm CLR
03:32 8.9 °C 6.2 °C 1018.5 hPa SSW 5.8 km/h 7.4 km/h 83% 0.0 mm CLR
03:37 8.9 °C 6.2 °C 1018.5 hPa South 5.8 km/h 7.4 km/h 83% 0.0 mm CLR
03:42 9.1 °C 6.4 °C 1018.5 hPa SSW 4.7 km/h 7.4 km/h 83% 0.0 mm CLR
03:47 9.1 °C 6.2 °C 1018.5 hPa South 4.7 km/h 5.8 km/h 82% 0.0 mm CLR
03:52 9.2 °C 6.3 °C 1018.5 hPa South 4.7 km/h 7.4 km/h 82% 0.0 mm CLR
03:57 9.3 °C 6.2 °C 1018.5 hPa SSE 4.7 km/h 5.8 km/h 81% 0.0 mm CLR
04:02 9.3 °C 6.0 °C 1018.5 hPa SE 4.7 km/h 8.4 km/h 80% 0.0 mm CLR
04:07 9.3 °C 6.0 °C 1018.2 hPa SSE 4.7 km/h 7.4 km/h 80% 0.0 mm CLR
04:12 9.2 °C 5.9 °C 1018.2 hPa SSE 5.8 km/h 9.3 km/h 80% 0.0 mm CLR
04:17 9.1 °C 6.0 °C 1018.2 hPa SSE 5.8 km/h 11.1 km/h 81% 0.0 mm CLR
04:20 8.9 °C 6.0 °C 1018.2 hPa SE 6.9 km/h 9.3 km/h 82% 0.0 mm CLR
04:22 8.8 °C 5.9 °C 1018.2 hPa SSE 6.9 km/h 11.1 km/h 82% 0.0 mm CLR
04:24 8.8 °C 6.1 °C 1018.2 hPa SSE 6.9 km/h 11.1 km/h 83% 0.0 mm CLR
04:26 8.7 °C 6.0 °C 1018.2 hPa SSW 6.9 km/h 9.3 km/h 83% 0.0 mm CLR
04:31 8.7 °C 6.0 °C 1018.2 hPa South 7.6 km/h 9.3 km/h 83% 0.0 mm CLR
04:33 8.7 °C 6.0 °C 1018.2 hPa SSW 7.6 km/h 9.5 km/h 83% 0.0 mm CLR
04:38 8.7 °C 6.0 °C 1018.2 hPa South 7.6 km/h 9.3 km/h 83% 0.0 mm CLR
04:43 8.7 °C 6.0 °C 1018.2 hPa South 6.9 km/h 9.3 km/h 83% 0.0 mm CLR
04:48 8.7 °C 5.8 °C 1018.2 hPa South 6.9 km/h 7.4 km/h 82% 0.0 mm CLR
04:53 8.8 °C 5.9 °C 1018.2 hPa SSE 5.8 km/h 7.4 km/h 82% 0.0 mm CLR
04:58 8.8 °C 5.9 °C 1018.2 hPa SSE 5.8 km/h 9.3 km/h 82% 0.0 mm CLR
05:03 8.7 °C 5.6 °C 1018.2 hPa SSW 5.8 km/h 9.3 km/h 81% 0.0 mm CLR
05:08 8.6 °C 5.5 °C 1018.2 hPa SSE 5.8 km/h 8.4 km/h 81% 0.0 mm CLR
05:13 8.5 °C 5.2 °C 1018.2 hPa SSW 6.4 km/h 11.1 km/h 80% 0.0 mm CLR
05:18 8.4 °C 5.2 °C 1018.2 hPa SSW 8.7 km/h 11.1 km/h 80% 0.0 mm CLR
05:23 8.4 °C 5.2 °C 1018.2 hPa South 8.7 km/h 9.3 km/h 80% 0.0 mm CLR
05:28 8.4 °C 4.9 °C 1018.2 hPa SSE 6.9 km/h 11.1 km/h 79% 0.0 mm CLR
05:33 8.5 °C 5.1 °C 1018.2 hPa SSE 6.9 km/h 9.3 km/h 79% 0.0 mm CLR
05:38 8.6 °C 5.3 °C 1018.2 hPa SSE 7.6 km/h 9.5 km/h 80% 0.0 mm CLR
05:43 8.6 °C 5.3 °C 1018.2 hPa SSW 7.6 km/h 9.3 km/h 80% 0.0 mm CLR
05:48 8.6 °C 5.3 °C 1018.2 hPa SSW 6.9 km/h 11.1 km/h 80% 0.0 mm CLR
05:53 8.6 °C 5.2 °C 1018.2 hPa SSW 6.9 km/h 11.1 km/h 79% 0.0 mm CLR
05:58 8.6 °C 5.2 °C 1018.2 hPa SSE 6.9 km/h 11.1 km/h 79% 0.0 mm CLR
06:03 8.6 °C 5.2 °C 1018.2 hPa SSW 6.9 km/h 7.6 km/h 79% 0.0 mm CLR
06:08 8.6 °C 5.2 °C 1018.2 hPa SSW 6.4 km/h 9.3 km/h 79% 0.0 mm CLR
06:13 8.6 °C 5.2 °C 1018.2 hPa SSW 6.4 km/h 9.3 km/h 79% 0.0 mm CLR
06:18 8.6 °C 5.2 °C 1018.2 hPa SSW 5.8 km/h 9.3 km/h 79% 0.0 mm CLR
06:23 8.5 °C 5.1 °C 1018.5 hPa SSW 5.8 km/h 9.3 km/h 79% 0.0 mm CLR
06:28 8.5 °C 4.9 °C 1018.5 hPa South 6.4 km/h 11.1 km/h 78% 0.0 mm CLR
06:33 8.4 °C 4.8 °C 1018.5 hPa South 6.4 km/h 9.3 km/h 78% 0.0 mm CLR
06:38 8.4 °C 4.8 °C 1018.5 hPa South 6.4 km/h 9.3 km/h 78% 0.0 mm CLR
06:43 8.4 °C 4.8 °C 1018.5 hPa South 6.4 km/h 11.1 km/h 78% 0.0 mm CLR
06:48 8.3 °C 4.7 °C 1018.5 hPa SSE 6.4 km/h 9.3 km/h 78% 0.0 mm CLR
06:53 8.3 °C 4.5 °C 1018.5 hPa SSW 6.4 km/h 9.3 km/h 77% 0.0 mm CLR
06:58 8.2 °C 4.4 °C 1018.5 hPa SSW 6.4 km/h 9.3 km/h 77% 0.0 mm CLR
07:03 8.2 °C 4.4 °C 1018.5 hPa SSE 6.4 km/h 9.3 km/h 77% 0.0 mm CLR
07:08 8.2 °C 4.4 °C 1018.5 hPa South 6.9 km/h 7.4 km/h 77% 0.0 mm CLR
07:13 8.2 °C 4.6 °C 1018.5 hPa SSW 6.9 km/h 9.3 km/h 78% 0.0 mm CLR
07:18 8.2 °C 4.6 °C 1018.5 hPa SSW 6.4 km/h 7.6 km/h 78% 0.0 mm CLR
07:23 8.1 °C 4.7 °C 1018.5 hPa South 6.4 km/h 9.3 km/h 79% 0.0 mm CLR
07:28 8.1 °C 4.7 °C 1018.5 hPa South 6.4 km/h 9.3 km/h 79% 0.0 mm CLR
07:33 8.1 °C 4.7 °C 1018.5 hPa South 6.4 km/h 9.3 km/h 79% 0.0 mm CLR
07:38 8.1 °C 4.7 °C 1018.8 hPa SSE 6.4 km/h 7.4 km/h 79% 0.0 mm CLR
07:43 8.0 °C 4.6 °C 1018.8 hPa SSE 6.4 km/h 7.4 km/h 79% 0.0 mm CLR
07:48 8.0 °C 4.6 °C 1018.8 hPa South 6.4 km/h 7.4 km/h 79% 0.0 mm CLR
07:53 7.9 °C 4.5 °C 1018.8 hPa SE 6.4 km/h 9.3 km/h 79% 0.0 mm CLR
07:58 7.9 °C 4.7 °C 1018.8 hPa SSE 5.8 km/h 7.4 km/h 80% 0.0 mm CLR
08:03 7.8 °C 4.7 °C 1018.8 hPa SSE 5.8 km/h 7.6 km/h 81% 0.0 mm CLR
08:08 7.7 °C 4.7 °C 1018.8 hPa SSE 5.8 km/h 7.4 km/h 81% 0.0 mm CLR
08:13 7.7 °C 4.4 °C 1018.8 hPa SSE 5.8 km/h 7.4 km/h 80% 0.0 mm CLR
08:18 7.7 °C 4.4 °C 1018.8 hPa SSE 6.4 km/h 7.6 km/h 80% 0.0 mm CLR
08:23 7.7 °C 4.4 °C 1019.2 hPa SSE 6.4 km/h 9.3 km/h 80% 0.0 mm CLR
08:26 7.7 °C 4.4 °C 1019.2 hPa SSE 6.4 km/h 9.3 km/h 80% 0.0 mm CLR
08:31 7.7 °C 4.4 °C 1019.2 hPa SSE 6.4 km/h 9.3 km/h 80% 0.0 mm CLR
08:36 7.8 °C 4.6 °C 1019.2 hPa South 6.4 km/h 11.1 km/h 80% 0.0 mm CLR
08:41 7.9 °C 4.5 °C 1019.2 hPa SSE 6.9 km/h 8.4 km/h 79% 0.0 mm CLR
08:46 8.1 °C 4.7 °C 1019.2 hPa South 6.9 km/h 9.3 km/h 79% 0.0 mm CLR
08:51 8.2 °C 4.6 °C 1019.2 hPa SSE 6.4 km/h 9.3 km/h 78% 0.0 mm CLR
08:56 8.4 °C 4.4 °C 1019.2 hPa SW 6.4 km/h 9.3 km/h 76% 0.0 mm CLR
09:01 8.6 °C 4.1 °C 1019.2 hPa SSW 5.8 km/h 9.3 km/h 73% 0.0 mm CLR
09:06 8.7 °C 3.9 °C 1019.2 hPa SSW 5.8 km/h 11.1 km/h 72% 0.0 mm CLR
09:11 8.8 °C 3.8 °C 1019.5 hPa South 7.6 km/h 11.1 km/h 71% 0.0 mm CLR
09:16 8.9 °C 3.5 °C 1019.5 hPa South 7.6 km/h 13.0 km/h 69% 0.0 mm CLR
09:21 8.9 °C 3.3 °C 1019.5 hPa SSE 8.7 km/h 13.0 km/h 68% 0.0 mm CLR
09:26 9.2 °C 3.6 °C 1019.5 hPa SSW 8.7 km/h 13.0 km/h 68% 0.0 mm CLR
09:31 9.3 °C 3.5 °C 1019.5 hPa SSE 10.0 km/h 13.0 km/h 67% 0.0 mm CLR
09:36 9.3 °C 3.3 °C 1019.5 hPa SSW 10.0 km/h 13.0 km/h 66% 0.0 mm CLR
09:41 9.5 °C 3.7 °C 1019.5 hPa SSE 9.5 km/h 11.1 km/h 67% 0.0 mm CLR
09:46 9.7 °C 3.7 °C 1019.5 hPa South 9.5 km/h 11.1 km/h 66% 0.0 mm CLR
09:51 9.8 °C 3.7 °C 1019.5 hPa South 7.6 km/h 11.1 km/h 66% 0.0 mm CLR
09:56 9.9 °C 3.8 °C 1019.5 hPa SW 7.6 km/h 11.1 km/h 66% 0.0 mm CLR
10:01 10.2 °C 3.9 °C 1019.5 hPa SW 8.4 km/h 11.1 km/h 65% 0.0 mm CLR
10:06 10.3 °C 3.8 °C 1019.5 hPa SW 8.4 km/h 9.3 km/h 64% 0.0 mm CLR
10:11 10.6 °C 3.8 °C 1019.5 hPa SW 6.9 km/h 9.3 km/h 63% 0.0 mm CLR
10:16 10.8 °C 4.1 °C 1019.5 hPa SW 6.9 km/h 7.4 km/h 63% 0.0 mm CLR
10:21 11.2 °C 4.2 °C 1019.5 hPa South 5.0 km/h 8.4 km/h 62% 0.0 mm CLR
10:26 11.5 °C 4.0 °C 1019.5 hPa South 5.0 km/h 9.3 km/h 60% 0.0 mm CLR
10:31 11.7 °C 4.2 °C 1019.5 hPa South 6.4 km/h 9.3 km/h 60% 0.0 mm CLR
10:36 11.8 °C 4.1 °C 1019.5 hPa WSW 6.4 km/h 11.1 km/h 59% 0.0 mm CLR
10:41 11.9 °C 4.1 °C 1019.5 hPa SSW 5.0 km/h 9.3 km/h 59% 0.0 mm CLR
10:46 12.1 °C 4.3 °C 1019.5 hPa SSW 5.0 km/h 11.1 km/h 59% 0.0 mm CLR
10:51 12.2 °C 4.2 °C 1019.5 hPa SW 6.9 km/h 8.4 km/h 58% 0.0 mm CLR
10:56 12.4 °C 4.3 °C 1019.5 hPa SSE 6.9 km/h 9.5 km/h 58% 0.0 mm CLR
11:01 12.7 °C 4.4 °C 1019.5 hPa South 6.4 km/h 13.0 km/h 57% 0.0 mm CLR
11:06 12.9 °C 4.1 °C 1019.5 hPa SSW 6.4 km/h 11.1 km/h 55% 0.0 mm CLR
11:11 13.0 °C 4.4 °C 1019.5 hPa SSE 8.4 km/h 11.1 km/h 56% 0.0 mm CLR
11:16 13.1 °C 4.3 °C 1019.5 hPa SSW 8.4 km/h 11.1 km/h 55% 0.0 mm CLR
11:21 13.3 °C 4.4 °C 1019.5 hPa SW 7.6 km/h 11.1 km/h 55% 0.0 mm CLR
11:26 13.4 °C 4.6 °C 1019.2 hPa SSE 7.6 km/h 11.1 km/h 55% 0.0 mm CLR
11:31 13.7 °C 4.6 °C 1019.2 hPa SSW 7.6 km/h 9.3 km/h 54% 0.0 mm CLR
11:36 13.8 °C 4.7 °C 1019.2 hPa SSW 7.6 km/h 7.6 km/h 54% 0.0 mm CLR
11:41 13.9 °C 4.7 °C 1019.2 hPa South 6.4 km/h 7.4 km/h 54% 0.0 mm CLR
11:46 14.3 °C 4.6 °C 1019.2 hPa SSW 6.4 km/h 9.5 km/h 52% 0.0 mm CLR
11:51 14.4 °C 4.7 °C 1019.2 hPa South 5.8 km/h 7.4 km/h 52% 0.0 mm CLR
11:56 14.7 °C 4.7 °C 1018.8 hPa SSE 5.8 km/h 7.4 km/h 51% 0.0 mm CLR
12:01 14.9 °C 4.6 °C 1018.8 hPa SW 4.7 km/h 9.3 km/h 50% 0.0 mm CLR
12:06 15.0 °C 4.7 °C 1018.8 hPa South 4.7 km/h 7.4 km/h 50% 0.0 mm CLR
12:11 15.3 °C 4.6 °C 1018.8 hPa South 5.0 km/h 5.6 km/h 49% 0.0 mm CLR
12:16 15.7 °C 4.7 °C 1018.8 hPa South 5.0 km/h 7.4 km/h 48% 0.0 mm CLR
12:21 16.0 °C 4.4 °C 1018.5 hPa WSW 3.9 km/h 9.3 km/h 46% 0.0 mm CLR
12:26 16.1 °C 4.8 °C 1018.5 hPa WNW 3.9 km/h 5.6 km/h 47% 0.0 mm CLR
12:31 16.3 °C 4.7 °C 1018.5 hPa West 3.9 km/h 7.6 km/h 46% 0.0 mm CLR
12:36 16.4 °C 4.7 °C 1018.2 hPa West 3.9 km/h 7.4 km/h 46% 0.0 mm CLR
12:41 16.5 °C 4.8 °C 1018.2 hPa SW 4.7 km/h 5.6 km/h 46% 0.0 mm CLR
12:46 16.8 °C 4.8 °C 1018.2 hPa SW 4.7 km/h 7.4 km/h 45% 0.0 mm CLR
12:52 17.1 °C 5.4 °C 1018.2 hPa South 3.2 km/h 5.8 km/h 46% 0.0 mm CLR
12:57 17.2 °C 5.2 °C 1018.2 hPa South 3.2 km/h 5.6 km/h 45% 0.0 mm CLR
Murcia-Puente Tocinos, España
Compliments of Weather Underground - 2 mb

La estación de MeteoMurcia.com, publica sus datos en los siguientes proyectos:

Meteoclimatic www.awekas.at

W3Counter
Web Analytics